AO-07 1 07530U 74089B 26169.32896865 -.00000049 00000-0 -18087-4 0 9997 2 07530 101.9900 182.5876 0012587 127.9839 243.9344 12.53698116360668 UO-11 1 14781U 84021B 26168.89257812 .00000920 00000-0 99183-4 0 9996 2 14781 97.8058 134.4592 0007721 170.0006 190.1367 14.90784781257234 LO-19 1 20442U 90005G 26169.01918789 .00000079 00000-0 44982-4 0 9990 2 20442 98.8850 190.8477 0011168 198.5761 161.5016 14.34123408902519 AO-27 1 22825U 93061C 26169.11865723 .00000076 00000-0 45857-4 0 9991 2 22825 98.6880 236.5319 0009539 97.3828 262.8439 14.30942518707131 FO-29 1 24278U 96046B 26169.05046237 -.00000003 00000-0 30027-4 0 9999 2 24278 98.5238 17.8043 0350914 94.1986 269.9331 13.53274469473283 GO-32 1 25397U 98043D 26168.97754884 .00000036 00000-0 35812-4 0 9997 2 25397 99.0067 161.7561 0001107 161.1376 198.9843 14.24428526451448 ISS 1 25544U 98067A 26169.15704105 .00009674 00000-0 18166-3 0 9998 2 25544 51.6334 295.2921 0004743 200.3344 159.7456 15.49293017571908 NO-44 1 26931U 01043C 26169.20699556 .00000076 00000-0 59168-4 0 9991 2 26931 67.0505 241.6342 0006073 264.6735 95.3674 14.31956418290598 SO-50 1 27607U 02058C 26169.30164588 .00000775 00000-0 10896-3 0 9992 2 27607 64.5511 125.5368 0075197 262.2633 96.9930 14.83049007264621 CO-55 1 27844U 03031E 26169.02064842 .00000221 00000-0 11471-3 0 9994 2 27844 98.6736 177.5689 0009610 175.5784 184.5482 14.24336174191796 RS-22 1 27939U 03042A 26169.30172678 .00000839 00000-0 13752-3 0 9998 2 27939 98.3464 353.6914 0009925 265.8597 171.6955 14.73469081215717 CO-65 1 32785U 08021C 26169.24313395 .00004157 00000-0 26362-3 0 9999 2 32785 97.8274 150.6836 0009640 35.5766 324.6103 15.09458737985352 CO-66 1 32791U 08021J 26168.98425388 .00015010 00000-0 47643-3 0 9997 2 32791 97.7517 166.9199 0000951 0.1361 359.9880 15.32775092987419 RS-30 1 32953U 08025A 26169.22515494 .00000059 00000-0 35271-3 0 9998 2 32953 82.5036 354.7940 0018815 311.5563 48.3903 12.43179619819825 SRMSAT 1 37841U 11058D 26169.08644889 .00000356 00000-0 49076-4 0 9993 2 37841 19.9725 54.0235 0011766 213.5570 297.0907 14.11575739757940 ZACUBE-1 1 39417U 13066B 26168.94052998 .00002469 00000-0 19407-3 0 9994 2 39417 97.8077 131.2813 0040899 245.0967 114.6003 15.01192546680841 Delfi-N3xt 1 39428U 13066N 26169.24877776 .00004148 00000-0 36403-3 0 9990 2 39428 97.8336 89.5590 0073754 201.9975 157.8075 14.95085785674786 GOMX-1 1 39430U 13066Q 26169.27545743 .00001467 00000-0 22484-3 0 9997 2 39430 97.6476 9.6692 0130171 74.0743 287.4763 14.69463611670078 LO-74 1 39440U 13066AA 26169.26893140 .00003955 00000-0 36657-3 0 9995 2 39440 97.8910 118.2515 0058324 25.5891 334.8194 14.93769757677157 AO-73 1 39444U 13066AE 26168.91830578 .00005311 00000-0 33079-3 0 9999 2 39444 97.8280 140.3793 0035693 198.2230 161.7722 15.09498416679777 DTUSAT-2 1 40030U 14033W 26168.96442267 .00005184 00000-0 28133-3 0 9999 2 40030 98.0863 166.7407 0006695 222.1989 137.8727 15.15025112652802 LILACSAT-2 1 40908U 15049K 26169.30422414 .00013413 00000-0 22865-3 0 9992 2 40908 97.4638 206.1883 0005578 239.4164 120.6538 15.51475148595928 Horyu-4 1 41340U 16012D 26169.06253989 .00440932 72868-4 98167-3 0 9999 2 41340 30.9844 72.5998 0005942 278.9863 81.0127 15.96640257570955 Lapan A3 1 41603U 16040E 26169.30073589 .00002801 00000-0 89787-4 0 9998 2 41603 97.1489 165.4097 0010763 22.1337 338.0368 15.33110590554981 CAS-2T 1 41847U 16066G 26169.21027534 .00001412 00000-0 20488-3 0 9994 2 41847 98.3822 244.9349 0342822 126.3847 236.9490 14.44697523504945 TechnoSat 1 42829U 17042E 26169.24659830 .00002961 00000-0 21222-3 0 9990 2 42829 97.4292 326.8635 0019031 90.8830 269.4577 15.04967634486862 AO-91 1 43017U 17073E 26168.60486874 .00005679 00000-0 24962-3 0 9992 2 43017 97.4696 35.8108 0149538 327.7970 31.4193 15.12722439465459 S-Net D 1 43186U 18014G 26169.18760940 .00003626 00000-0 18851-3 0 9998 2 43186 97.5360 73.9721 0008846 27.3828 332.7870 15.16680954458911 S-Net B 1 43187U 18014H 26169.19908287 .00003940 00000-0 20465-3 0 9991 2 43187 97.5365 73.9702 0009343 22.2954 337.8684 15.16651341458910 S-Net A 1 43188U 18014J 26168.65868170 .00003875 00000-0 20114-3 0 9996 2 43188 97.5378 73.6419 0009280 24.6066 335.5608 15.16685227458839 S-Net C 1 43189U 18014K 26169.20296397 .00004098 00000-0 21276-3 0 9993 2 43189 97.5395 74.2579 0010331 14.4475 345.7051 15.16643511457466 Ten-Koh 1 43677U 18084G 26169.05577320 .00001500 00000-0 11650-3 0 9993 2 43677 98.0773 1.4561 0011592 111.6863 248.5596 15.02946081416291 PO-101 1 43678U 18084H 26169.23687957 .00001760 00000-0 14492-3 0 9997 2 43678 98.1178 5.4902 0012518 166.7078 193.4477 15.00455353416373 QO-100 1 43700U 18090A 26169.18706521 .00000138 00000-0 00000-0 0 9998 2 43700 0.0171 19.0751 0001670 105.0983 235.3779 1.00271194 27682 MinXSS-2 1 43758U 18099A 26169.12677165 .00028425 00000-0 56417-3 0 9990 2 43758 97.4531 245.4391 0006645 251.0553 108.9976 15.46949569414274 AO-95 1 43770U 18099N 26169.12635746 .00009390 00000-0 35966-3 0 9999 2 43770 97.4378 229.3690 0007874 354.3313 5.7835 15.26728638413363 SNUSat 2 1 43782U 18099AA 26169.12232972 .00006171 00000-0 27427-3 0 9993 2 43782 97.4053 222.4919 0008575 294.5412 65.4930 15.21849428413172 SnugLite 1 43784U 18099AC 26169.12650977 .00009450 00000-0 35712-3 0 9993 2 43784 97.3862 223.3974 0001184 282.5149 77.5957 15.27196601413464 ITASat 1 1 43786U 18099AE 26169.14149839 .00005695 00000-0 27437-3 0 9999 2 43786 97.4024 220.6342 0011980 356.9860 3.1301 15.19068297413050 EAGLET 1 1 43790U 18099AJ 26169.11103030 .00002855 00000-0 16543-3 0 9995 2 43790 97.4225 218.7553 0010578 351.1614 8.9430 15.12945174412478 ESEO 1 43792U 18099AL 26169.04508830 .00001661 00000-0 12345-3 0 9996 2 43792 97.3976 206.3963 0011218 337.1026 22.9699 15.04251317411936 JO-97 1 43803U 18099AX 26169.13967896 .00014196 00000-0 43794-3 0 9999 2 43803 97.4123 231.9773 0004390 257.5077 102.5675 15.33679040413773 Suomi 100 1 43804U 18099AY 26169.12282499 .00010531 00000-0 38267-3 0 9996 2 43804 97.4180 229.5127 0008378 274.8695 85.1588 15.28433243413564 ISAT 1 43879U 18111D 26169.24894792 .00079626 00000-0 79238-3 0 9994 2 43879 97.5883 104.5522 0001106 149.2131 210.9193 15.65460026411333 UWE-4 1 43880U 18111E 26169.25062241 .00024613 00000-0 50223-3 0 9992 2 43880 97.5854 97.6902 0005301 337.5186 22.5830 15.46181512410940 Sparrow 1 43881U 18111F 26169.27501764 .00134065 00000-0 90291-3 0 9995 2 43881 97.6116 110.2173 0004375 112.2723 247.9005 15.74731509411542 Prox-1 1 44339U 19036A 26168.92751771 .00010882 00000-0 10554-2 0 9990 2 44339 23.9948 109.3054 0005742 44.3809 315.7150 14.90623480373583 Taurus 1 1 44530U 19059C 26169.26232289 .00004399 00000-0 70761-3 0 9997 2 44530 98.6416 334.1562 0007421 312.6932 47.3648 14.72103226358800 TO-108 1 44881U 19093C 26169.25637853 .00000177 00000-0 26007-4 0 9994 2 44881 97.7534 241.4624 0015095 83.4988 276.7946 14.86519812351572 RS-44 1 44909U 19096E 26168.94337089 .00000011 00000-0 -58517-5 0 9991 2 44909 82.5219 339.2023 0218198 142.4037 219.2549 12.79748846302448 SALSAT 1 46495U 20068K 26168.99584059 .00006301 00000-0 22102-3 0 9996 2 46495 97.8849 172.1096 0008018 304.7591 55.2892 15.29809762315488 CSS (TIANHE-1) 1 48274U 21035A 26169.19275359 .00019911 00000-0 23482-3 0 9994 2 48274 41.4698 315.8819 0007398 85.5010 274.6674 15.60850984293321 CUTE 1 49263U 21088D 26169.25526783 .00125731 81416-5 35550-3 0 9990 2 49263 97.4160 268.6529 0007806 226.9237 133.1385 15.93432474262728 TeikyoSat 4 1 49396U 21102B 26169.11498513 .00001339 00000-0 87268-4 0 9994 2 49396 97.3671 198.5624 0010431 293.1777 66.8353 15.09510834252866 Z-Sat 1 49399U 21102E 26169.25249611 .00003532 00000-0 17516-3 0 9990 2 49399 97.3313 204.5436 0015086 240.6352 119.3376 15.18269664253602 KOSEN 1 1 49402U 21102H 26169.05916154 .00005821 00000-0 22292-3 0 9996 2 49402 97.3179 211.1995 0013287 197.1938 162.8852 15.26844706254156 HO-113 1 50466U 21131B 26169.30415650 .00000264 00000-0 95199-4 0 9996 2 50466 98.4987 261.6877 0005391 94.6141 265.5664 14.41358006235273 SNUGLITE 2 1 52899U 22065F 26168.85100830 .00000750 00000-0 15110-3 0 9999 2 52899 98.2203 313.6802 0007962 31.1631 329.0042 14.64348792211092 UmKA 1 (RS40S) 1 57172U 23091G 26169.21244916 .00004588 00000-0 21062-3 0 9999 2 57172 97.5047 227.9057 0014258 114.4510 245.8215 15.20828137164166 CubeBel-2 (EU11S) 1 57175U 23091K 26169.23083763 .00009918 00000-0 35226-3 0 9994 2 57175 97.5047 232.4571 0011304 111.5241 248.7205 15.29173857164464 RS-38S 1 57189U 23091Z 26169.25507510 .00013067 00000-0 37391-3 0 9997 2 57189 97.5089 238.7616 0008209 74.3712 285.8436 15.36054800164858 SONATE-2 1 59112U 24043Q 26168.97287232 .00033352 00000-0 43246-3 0 9992 2 59112 97.5538 319.4165 0007088 192.8072 167.3005 15.58769943128019 GRBBeta 1 60237U 24128C 26168.48551437 .00002424 00000-0 17435-3 0 9990 2 60237 61.9882 215.2195 0040618 134.7304 225.7108 15.06640908106315 Curium One 1 60242U 24128H 26168.43454753 .00005105 00000-0 29902-3 0 9995 2 60242 61.9765 204.8991 0039710 130.9174 229.5371 15.12513628106491 ROBUSTA-3A 1 60243U 24128J 26169.12705629 .00004198 00000-0 25366-3 0 9995 2 60243 61.9845 204.9203 0041294 128.1142 232.3688 15.11684211106569 CatSat 1 60246U 24125J 26169.10272228 .00049804 00000-0 63775-3 0 9996 2 60246 97.2078 21.6150 0022362 176.0493 184.0944 15.58740841107532 HYPERVIEW-1G (RS66S) 1 61772U 24199AP 26169.20555706 .00128218 00000-0 81530-3 0 9994 2 61772 97.2865 48.9756 0003832 215.0729 145.0285 15.76079848134832 AO-123 1 61781U 24199AY 26169.27271548 .00006069 00000-0 17680-3 0 9994 2 61781 97.2994 37.9335 0012215 309.7584 50.2583 15.35688385134094 JINJUSat 1B 1 63210U 25052A 26167.68917839 .00012762 00000-0 39628-3 0 9998 2 63210 97.4007 64.4436 0005487 91.7275 268.4596 15.33490602 70025 NUSHSAT 1 1 63211U 25052B 26168.64574124 .00016808 00000-0 48134-3 0 9999 2 63211 97.3980 65.9687 0005209 92.5386 267.6455 15.35986793 70212 TEVEL2-4 1 63213U 25052D 26169.16026822 .00013925 00000-0 41679-3 0 9990 2 63213 97.3899 65.5534 0004892 101.1057 259.0736 15.34638877 70267 TEVEL2-5 1 63214U 25052E 26169.18087881 .00014231 00000-0 42823-3 0 9998 2 63214 97.3897 65.5217 0004813 102.5034 257.6748 15.34466186 70266 TEVEL2-6 1 63215U 25052F 26168.67152684 .00015165 00000-0 45683-3 0 9990 2 63215 97.3904 64.9959 0004737 104.1466 256.0303 15.34416475 70181 TEVEL2-1 1 63217U 25052H 26167.98311732 .00015254 00000-0 46759-3 0 9990 2 63217 97.3878 63.9315 0004776 114.0246 246.1497 15.33862790 70062 TEVEL2-3 1 63218U 25052J 26168.95628033 .00014612 00000-0 44689-3 0 9991 2 63218 97.3877 64.9266 0004765 112.2004 247.9744 15.33945256 70218 TEVEL2-2 1 63219U 25052K 26167.65724747 .00014434 00000-0 44263-3 0 9997 2 63219 97.3883 63.6082 0004715 115.1533 245.0199 15.33861744 70012 TEVEL2-9 1 63237U 25052AD 26168.94039639 .00013118 00000-0 42755-3 0 9991 2 63237 97.3937 64.2647 0007862 128.7161 231.4784 15.31916427 70149 TEVEL2-7 1 63238U 25052AE 26168.65478596 .00013228 00000-0 43519-3 0 9990 2 63238 97.3940 63.8957 0007915 129.8998 230.2940 15.31613826 70094 TEVEL2-8 1 63239U 25052AF 26168.66304258 .00012825 00000-0 42222-3 0 9997 2 63239 97.3941 63.8807 0007934 130.2742 229.9195 15.31597535 70099 SPIRONE 1 66657U 25274H 26169.25990277 .00001493 00000-0 14690-3 0 9995 2 66657 97.7481 98.5357 0012580 18.3393 341.8278 14.93547796 30380 K-HERO 1 66660U 25274L 26168.79535596 .00001485 00000-0 14454-3 0 9995 2 66660 97.7486 98.2392 0014585 22.8548 337.3318 14.93963632 30324 SNUGLITE-III DURI 1 66661U 25274M 26169.25194283 .00001067 00000-0 10529-3 0 9997 2 66661 97.7486 98.7102 0015214 22.0904 338.0968 14.94004503 30397 SAKHACUBE-CHOLBON 1 67290U 25313AU 26168.16026920 .00007482 00000-0 30339-3 0 9999 2 67290 97.3933 243.1952 0008835 5.5114 354.6219 15.24887309 25976 RS95S (QMR-KWT-2) 1 67291U 25313AV 26168.73860177 .00010829 00000-0 41953-3 0 9996 2 67291 97.3929 243.9430 0008139 1.1572 358.9684 15.26305791 26075 Ten-Koh2 1 68261U 25241B 26166.70419506 .00005304 00000-0 23027-3 0 9999 2 68261 51.6697 326.6857 0006067 137.6687 222.4761 15.23889978 14686 JACK-002 1 68417U 26067B 26168.82002186 .00005616 00000-0 26850-3 0 9999 2 68417 97.4573 127.4028 0000115 15.6543 344.4695 15.19401106 12048 DISCO 2 1 68431U 26067R 26168.84132568 .00007271 00000-0 34977-3 0 9993 2 68431 97.4604 127.4123 0002732 42.7414 317.4032 15.19081765 12040 HADES-SA (SpinnyONE) 1 68446U 26067AG 26168.81466387 .00015192 00000-0 72585-3 0 9993 2 68446 97.4412 127.1017 0009479 80.5159 279.7146 15.19078969 12029 PARUS-6U1 1 68456U 26067AS 26168.84783386 .00004767 00000-0 24086-3 0 9997 2 68456 97.4556 127.2011 0007443 70.1823 290.0212 15.17522544 12038 SAL-E 1 68458U 26067AU 26168.84316673 .00006485 00000-0 32417-3 0 9996 2 68458 97.4481 127.1321 0007885 77.3462 282.8653 15.17763169 12036 FSI-SAT 2 1 68792U 26088A 26168.94982007 .00003741 00000-0 25435-3 0 9995 2 68792 97.5079 318.1894 0015942 104.3260 255.9739 15.06843719 8408 OrigamiSat 2 1 68795U 26088D 26168.95805529 .00010866 00000-0 69331-3 0 9991 2 68795 97.5079 318.3357 0016131 78.7559 281.5481 15.08753974 8418 ARICA 2 1 68796U 26088E 26168.95748044 .00004048 00000-0 26321-3 0 9997 2 68796 97.5068 318.3246 0017008 77.8909 282.4224 15.08434788 8411 WASEDA-SAT-ZERO-II 1 68797U 26088F 26168.95308621 .00005297 00000-0 34112-3 0 9995 2 68797 97.5069 318.3290 0016762 77.9310 282.3795 15.08652296 8413 MANGARO-II-Piscus 1 68798U 26088G 26168.94346623 .00003188 00000-0 20586-3 0 9996 2 68798 97.5078 318.3492 0020620 80.1236 280.2320 15.08791826 8413 IO-86 1 40931U 25360.30710720 .00000000 00000-0 12800-3 0 00 2 40931 6.0006 332.5373 0012733 338.8432 8.1437 14.79075515 01 LILIUM-4 1 71922C 26067AC 26089.50133053 -.00014632 00000 0 -74472-3 0 04 2 71922 97.4497 49.1617 0004341 5.9603 355.7042 15.16896692 16